  AS17508C1   4Mar2000
  11:22-11:28(JST)
  Freq. - 435.787MHz

 HI HI AE C7 88 55 11 25 FF 0D 00 2E 3E 77 8F 60 92 90 B0 6F B6 B3 B5 B6 B6 

 テレメトリ	内   容		換算値	単 位
 
 3C	磁気センサーZ軸=	30392.1	[nT]
 3D	磁気センサX軸	=	58333.3	[nT]
 4A	太陽電池発生電流=	 1402.0	[mA]
 4B	B充放電電流	=	 -118.4	[mA]
 4C	B端子電圧	=	   15.7	[V]
 4D	B中間端子電圧	=	    6.9	[V]
 5A	バス電圧 	=	   17.3	[V]
 5B	JTA送信電力	=	  623.4	[mW]
 5C 	構体温度1	=	   11.2	[℃]
 5D	構体温度2	=	   12.4	[℃]
 6A	構体温度3	=	   11.6	[℃]
 6B	構体温度4	=	   11.2	[℃]
 6C	Bセル温度	=	   11.2	[℃]
 
 * OSはWindows 2000,Office 2000 にて計算処理.

 ==================================================================================

 3)JARL のホームページに運用予定が記載されていましたのでご紹介します.
       ( http://www.jarl.or.jp/Japanese/3_Fuji/new/uy.htm )

        ■ ふじ3号/FOー29/JAS-2 ■  
   
     *** 運用予定について ***
    
  02月28日 〜 03月05日 アナログ系運用 
  03月06日 〜 03月10日 デジタル系1200bpsメールボックス運用 
   03月11日 〜 03月20日 アナログ系運用 
   03月21日 〜 03月24日 デジタル系1200bpsメールボックス運用 
   03月25日 〜 04月02日 アナログ系運用 


   ※2月22日から27日まで、デジタル系1200bpsメールボックス運用でしたが、
     24日(木)01時のパスで確認をしたところ、「ふじ3号」のコンピュータに
     メモリーエラーが発  生しているため、コンピュータのリセット及びプログラムの
     アップロード作業を行います  ので、予定を変更してしばらくの間、アナログ系運用と
     致します。また、アップロード作業 が終了次第、デジタル系1200bpsメール
     ボックス運用を行います。

 *なお,運用予定は都合により変更することがありますのでご了承願います。

 照会先 : lab@jarl.or.jp

 最新の情報はテレホンサービス(03−3942−1000)をお聞きください。  
 以後の運用につきましては3月下旬にお知らせいたします。

-----------------------    FO-20(JAS-1b)道要素   -------------------------
 4)
 ■ 軌道要素1 :出典はFO-29「ふじ3号」に同じ.
  
  FO-20
 1 20480U 90013C   00062.41295832 -.00000010  00000-0  58987-4 0  2085
 2 20480  99.0349 212.8919 0540168 297.1499  57.5505 12.83263801471583
 
 ■ 軌道要素2 :出典はFO-29「ふじ3号」に同じ.
               
  Satellite: FO-20
 Catalog number: 20480
 Epoch time:      00062.41295832
 Element set:     208
 Inclination:       99.0349 deg
 RA of node:       212.8919 deg
 Eccentricity:    0.0540168
 Arg of perigee:   297.1499 deg
 Mean anomaly:      57.5505 deg
 Mean motion:   12.83263801 rev/day
 Decay rate:       -1.0e-07 rev/day^2
 Epoch rev:           47158
 Checksum:              298

--------------  FO-20(JAS-1b)のテレメトリとQSOに関する情報  --------------------
 
 5)2月12日(土)の15:12(JST)のパスでは前回観測のような唸りはありませんでしたが
   単一正弦波状の音がテレメトリとして観測されました。しかしアナログQSOは正常で活発に
   行われておりました。

--------------------------------------------------------------------------------
 6)         ■ ふじ2号/FO−20/JAS-1b ■      
            
          「ふじ2号」 現況                                                                                  
             
   JAS-1b(ふじ2号)のCWテレメトリ信号に,1997年10月12日12時(JST)の
 日本上空通過時,3桁の数字が繰り返されるはずが3個の長音の繰り返しとなっているという
 異常が発見されました。この不具合は次の通過時からは回復していましたが13日15時20分の
 通過時に再び観測されました。現在はA0の送信が続いています。衛星のアナログ系中継モード
 動作は異常が無く,正常時のテレメトリ内容からは衛星の動作に異常は認められません。従って,
 直ちに衛星のミッションに影響することは無いと予想されますので,当面はアナログ系中継
 モードを継続します。衛星は既に打ち上げてから7年8ヶ月を経ておりますので,今後は監視を
 強化する予定です。アマチュア各位のレポートをお待ちします。
-------------------------------------------------------------------------------- 
  1997年10月14日 00時35分 確認のテレメトリ音 151 KB (A0) 
  1997年10月14日 11時10分 確認のテレメトリ音 216 KB (異常キーイング) 

  以上 JARLのホ−ムページの http://www.jarl.or.jp/Japanese/3_Fuji/new/fuji.htm
                                           
   =============   JAS-2 (ふじ3号)と現在までの情報   ===========
  
  A.電話によるふじ3号の運用情報
      社団法人日本アマチュア連盟によるサービス
           TEL .   03− 3942 − 1000
  B.アマチュア無線FAXサービス
      JARLによるふじ3号の軌道情報(オービットカレンダー)
         FAX No.  03− 3233 −0055
  C.WWWブラウザで情報を簡単に見れる人のためにJAS−2
     ふじ3号の衛星としての運用されるまでの名前)の概要、打ち上げ
     までの状況、運用中における状況を説明したホームページを紹介し
     ておきます.
     社団法人日本アマチュア無線連盟(JARL)のホームページ

          http://www.jarl.or.jp/Japanese/3_Fuji/jasmenu.htm
 
     宇宙開発事業団(NASDA)ホームページ 
          http://www.nasda.go.jp/
         打上げ衛星 :地球観測プラットフォーム技術衛星(ADEOS) 
                       アマチュア衛星3号(JAS-2)
          http://yyy.tksc.nasda.go.jp/Home/Press/Press-j/jas-2_j.html        

  D.JAMSATによる軌道情報の活用
        JAMSATのホームページまたはjamsat−kepsの軌道要素より
      衛星の軌道情報を得る.
     JAMSATホームページ
               URL    http://www.jamsat.or.jp
       上記ホームページでは各地で行われるアマチュア通信衛星に関する
      ミューティングのお知らせや世界のアマチュア衛星に関する情報が
      満載されています.
 =========================================================================  
     JAMSATのメンバーのご協力によりJH6MME(高山 秀造)が
    執筆・編集を担当しております.ご指摘の意見、疑問やこのようにしたら
    というアイデアがありましたら小さなことでもかまいませんので気軽に下
    記アドレスまでご連絡ください.jamsat−newsからjas2
    infoへの転載をJH4PHW局坂井さんに担当して頂いております.  
                  E-mail : jh6mme@jamsat.or.jp : jh4phw@jamsat.or.jp
 ===============================   END  ===============================